Weather in Cesvaine

Latvia     56°57′49″N   26°18′43″E
temp.,
°C
wind,
m/s
gust,
m/s
humid.,
%
clouds,
%
prec.,
mm/h
press.,
hPa
HPBL,
m
20 april, tue
tue2000:00+7ne237510 0.0 102261
03:00+5ne22795 0.0 102117
06:00+4ne228575 0.0 102016
09:00+7ene2477100 0.0 1018240
12:00+11e3458100 0.3 10171236
15:00+11e3443100 0.4 10151568
18:00+11ese445454 0.1 10141256
21:00+6ese268086 0.1 1014150
21 april, wed
wed2100:00+4se2491100 0.0 1013100
03:00+3sse119588 0.0 101214
06:00+2sse119547 0.0 101010
09:00+7s117389 0.0 1009329
12:00+10wsw125449 0.1 10071232
15:00+12w2446100 0.1 10051789
18:00+11wsw345690 0.3 1005938
21:00+8ssw227681 1.4 100527
22 april, thu
thu2200:00+6sw238753 0.1 100561
03:00+5wsw388593 0.1 1005162
06:00+3sw39925 0.0 1006214
09:00+7ssw257490 0.0 1006437
12:00+5ssw4992100 1.0 1007780
15:00+6sw487284 1.6 10071256
18:00+8sw510625 0.2 10071609
21:00+4ssw410775 0.2 1008902
23 april, fri
fri2300:00+2ssw410767 0.0 1007582
03:000ssw410855 0.0 1007520
06:00−1ssw4109056 0.0 1007505
09:00+1ssw5984100 0.1 1007728
12:00+3ssw5886100 0.6 1007859
15:00+5sw5769100 1.1 10081276
18:00+5wsw586799 0.4 10091346
21:000wsw379360 0.6 1011373
24 april, sat
sat2400:00−1sw3894100 0.0 1010327
03:00−1sw4993100 0.0 1009416
06:000ssw3892100 0.1 1008518
09:00+1sw3696100 0.7 1008497
12:00+4wsw3465100 0.4 10081214
15:00+6w3461100 1.3 10081464
18:00+5wnw456886 0.9 10081219
21:00+1w379058 1.0 1010287